Location: Fort Worth, Tx
(32.7431°N, 97.3695°W)
Time: 04:58:16
(UTC-04:00)

Vanguard 3 - Pass Details

Date: 24 February 2024
Orbit: 510 x 3234 km, 33.3° (Epoch: 24 April)

Event Time Altitude Azimuth Distance (km) Brightness Sun altitude
Rises 21:29:00 0° 236° (SW) 6,582 12.5 -27.3°
Reaches altitude 10° 21:33:02 10° 234° (SW) 5,792 12.0 -28.2°
Maximum altitude 21:52:07 70° 155° (SSE) 3,354 9.9 -32.1°
Enters shadow 21:58:36 50° 94° (E) 3,652 9.9 -33.5°
